Weather History for Kingstree, SC

Change the Weather History Date:

Thursday, January 17, 2013

  Actual Average Record
Temperature  
Mean Temperature 18 °C -  
Max Temperature 27 °C 12 °C 26 °C (2013)
Min Temperature 9 °C -1 °C -2 °C (2011)
Degree Days  
Heating Degree Days 1    
Growing Degree Days 14 (Base 50)    
Moisture  
Dew Point 15 °C    
Average Humidity 82    
Maximum Humidity 100    
Minimum Humidity 54    
Precipitation  
Precipitation 7.37 mm - - ()
Sea Level Pressure  
Sea Level Pressure 1012 hPa    
Wind  
Wind Speed 10 km/h (South)    
Max Wind Speed 27 km/h    
Max Gust Speed 47 km/h    
Visibility 14 kilometers    
Events Rain    
Averages and records for this station are not official NWS values.
T = Trace of Precipitation, MM = Missing Value Source: NWS Daily Summary

Daily Weather History Graph

Daily Weather History Graph

Search for Another Location

Airport:

Trip Planner

Search our weather history database for the weather conditions in past years. The results will help you decide how hot, cold, wet, or windy it might be!

Date:

Astronomy

Jan. 17, 2013 Rise Set
Actual Time 7:23 AM EST 5:36 PM EST
Civil Twilight 6:56 AM EST 6:03 PM EST
Nautical Twilight 6:26 AM EST 6:33 PM EST
Astronomical Twilight 5:56 AM EST 7:03 PM EST
Moon 10:50 AM EST (1/17) No Moon Set
Length of Visible Light 11h 06m
Length of Day
10h 12m
Waxing Crescent, 37% of the Moon is Illuminated
Jan 17
Waxing Crescent
Jan 18
First Quarter
Jan 26
Full
Feb 3
Last Quarter
Feb 10
New

Hourly Weather History & Observations

Time (EST) Temp. Heat Index Dew Point Humidity Pressure Visibility Wind Dir Wind Speed Gust Speed Precip Events Conditions
12:15 AM 20.0 °C - 17.0 °C 83% 1014.8 hPa 16.1 km South 5.6 km/h / 1.5 m/s - N/A   Clear
12:35 AM 19.0 °C - 17.0 °C 88% 1014.8 hPa 16.1 km South 9.3 km/h / 2.6 m/s - N/A   Clear
12:55 AM 20.0 °C - 17.0 °C 83% 1014.8 hPa 16.1 km South 9.3 km/h / 2.6 m/s - N/A   Clear
1:15 AM 20.0 °C - 17.0 °C 83% 1014.8 hPa 16.1 km South 7.4 km/h / 2.1 m/s - N/A   Clear
1:35 AM 20.0 °C - 17.0 °C 83% 1014.8 hPa 16.1 km South 9.3 km/h / 2.6 m/s - N/A   Clear
2:15 AM 19.0 °C - 17.0 °C 88% 1014.8 hPa 16.1 km South 9.3 km/h / 2.6 m/s - N/A   Clear
2:35 AM 19.0 °C - 17.0 °C 88% 1014.4 hPa 16.1 km South 7.4 km/h / 2.1 m/s - N/A   Clear
2:55 AM 18.0 °C - 17.0 °C 94% 1014.4 hPa 16.1 km SSE 5.6 km/h / 1.5 m/s - N/A   Clear
3:15 AM 18.0 °C - 17.0 °C 94% 1014.4 hPa 16.1 km South 5.6 km/h / 1.5 m/s - N/A   Clear
3:35 AM 18.0 °C - 17.0 °C 94% 1014.1 hPa 16.1 km Calm Calm - N/A   Clear
3:55 AM 18.0 °C - 17.0 °C 94% 1014.1 hPa 16.1 km Calm Calm - N/A   Clear
4:15 AM 18.0 °C - 17.0 °C 94% 1014.1 hPa 16.1 km SE 7.4 km/h / 2.1 m/s - N/A   Clear
4:35 AM 18.0 °C - 17.0 °C 94% 1013.8 hPa 16.1 km Calm Calm - N/A   Clear
4:55 AM 17.0 °C - 17.0 °C 100% 1014.1 hPa 16.1 km Calm Calm - N/A   Clear
5:15 AM 16.0 °C - 16.0 °C 100% 1014.1 hPa 16.1 km Calm Calm - N/A   Clear
5:35 AM 16.0 °C - 16.0 °C 100% 1014.1 hPa 16.1 km Calm Calm - N/A   Clear
5:55 AM 16.0 °C - 16.0 °C 100% 1014.1 hPa 16.1 km Calm Calm - N/A   Clear
6:15 AM 16.0 °C - 16.0 °C 100% 1014.1 hPa 16.1 km Calm Calm - N/A   Clear
6:35 AM 16.0 °C - 16.0 °C 100% 1014.4 hPa 16.1 km Calm Calm - N/A   Clear
6:55 AM 16.0 °C - 16.0 °C 100% 1014.4 hPa 16.1 km Calm Calm - N/A   Clear
7:15 AM 16.0 °C - 16.0 °C 100% 1014.4 hPa 16.1 km Calm Calm - N/A   Clear
7:35 AM 16.0 °C - 16.0 °C 100% 1014.4 hPa 16.1 km ESE 5.6 km/h / 1.5 m/s - N/A   Clear
7:55 AM 16.0 °C - 16.0 °C 100% 1014.8 hPa 11.3 km SE 5.6 km/h / 1.5 m/s - N/A   Clear
8:15 AM 17.0 °C - 17.0 °C 100% 1014.4 hPa 16.1 km SE 7.4 km/h / 2.1 m/s - N/A   Clear
8:35 AM 17.0 °C - 17.0 °C 100% 1014.8 hPa 16.1 km SSE 7.4 km/h / 2.1 m/s - N/A   Clear
8:55 AM 18.0 °C - 18.0 °C 100% 1014.8 hPa 16.1 km SE 9.3 km/h / 2.6 m/s - N/A   Clear
9:15 AM 20.0 °C - 18.0 °C 88% 1014.8 hPa 16.1 km SSE 11.1 km/h / 3.1 m/s - N/A   Clear
9:35 AM 21.0 °C - 18.0 °C 83% 1014.8 hPa 16.1 km SSE 11.1 km/h / 3.1 m/s - N/A   Clear
9:55 AM 22.0 °C - 17.0 °C 73% 1014.4 hPa 16.1 km SSE 13.0 km/h / 3.6 m/s - N/A   Clear
10:15 AM 22.0 °C - 17.0 °C 73% 1014.1 hPa 16.1 km SSE 13.0 km/h / 3.6 m/s - N/A   Clear
10:35 AM 23.0 °C - 17.0 °C 69% 1013.8 hPa 16.1 km SSE 11.1 km/h / 3.1 m/s - N/A   Clear
10:55 AM 24.0 °C - 17.0 °C 65% 1013.1 hPa 16.1 km South 13.0 km/h / 3.6 m/s - N/A   Clear
11:15 AM 25.0 °C - 17.0 °C 61% 1012.4 hPa 11.3 km SSE 20.4 km/h / 5.7 m/s - N/A   Clear
11:35 AM 25.0 °C - 17.0 °C 61% 1011.7 hPa 11.3 km SSE 14.8 km/h / 4.1 m/s - N/A   Clear
11:55 AM 26.0 °C - 17.0 °C 57% 1011.4 hPa 11.3 km SSE 18.5 km/h / 5.1 m/s 27.8 km/h / 7.7 m/s N/A   Clear
12:15 PM 26.0 °C - 17.0 °C 57% 1010.7 hPa 16.1 km SSE 14.8 km/h / 4.1 m/s - N/A   Clear
12:35 PM 27.0 °C 27.7 °C 17.0 °C 54% 1010.0 hPa 16.1 km South 22.2 km/h / 6.2 m/s - N/A   Clear
12:55 PM 26.0 °C - 17.0 °C 57% 1009.4 hPa 11.3 km SE 20.4 km/h / 5.7 m/s 27.8 km/h / 7.7 m/s N/A   Clear
1:15 PM 27.0 °C 27.7 °C 17.0 °C 54% 1009.0 hPa 11.3 km SSE 18.5 km/h / 5.1 m/s - N/A   Clear
1:35 PM 27.0 °C 27.7 °C 17.0 °C 54% 1008.7 hPa 8.0 km SSW 22.2 km/h / 6.2 m/s 27.8 km/h / 7.7 m/s N/A   Haze
1:55 PM 27.0 °C 27.7 °C 17.0 °C 54% 1008.4 hPa 11.3 km South 18.5 km/h / 5.1 m/s 27.8 km/h / 7.7 m/s N/A   Clear
2:15 PM 27.0 °C 27.7 °C 17.0 °C 54% 1007.7 hPa 11.3 km South 14.8 km/h / 4.1 m/s 29.6 km/h / 8.2 m/s N/A   Clear
2:35 PM 26.0 °C - 16.0 °C 54% 1007.0 hPa 11.3 km South 14.8 km/h / 4.1 m/s 29.6 km/h / 8.2 m/s N/A   Clear
2:55 PM 26.0 °C - 16.0 °C 54% 1007.0 hPa 11.3 km South 18.5 km/h / 5.1 m/s 33.3 km/h / 9.3 m/s N/A   Clear
3:15 PM 26.0 °C - 16.0 °C 54% 1007.0 hPa 16.1 km SSE 22.2 km/h / 6.2 m/s 31.5 km/h / 8.7 m/s N/A   Clear
3:35 PM 25.0 °C - 16.0 °C 57% 1007.0 hPa 11.3 km SSE 22.2 km/h / 6.2 m/s 35.2 km/h / 9.8 m/s N/A   Clear
3:55 PM 25.0 °C - 16.0 °C 57% 1006.7 hPa 11.3 km SSE 24.1 km/h / 6.7 m/s 37.0 km/h / 10.3 m/s N/A   Clear
4:15 PM 24.0 °C - 17.0 °C 65% 1006.7 hPa 16.1 km SSE 24.1 km/h / 6.7 m/s 33.3 km/h / 9.3 m/s N/A   Clear
4:35 PM 23.0 °C - 17.0 °C 69% 1006.3 hPa 16.1 km SE 16.7 km/h / 4.6 m/s - N/A   Clear
4:55 PM 23.0 °C - 17.0 °C 69% 1006.0 hPa 16.1 km SSE 18.5 km/h / 5.1 m/s - N/A   Clear
5:15 PM 16.0 °C - 15.0 °C 94% 1008.7 hPa 8.0 km SW 22.2 km/h / 6.2 m/s 44.4 km/h / 12.3 m/s 1.3 mm Rain Heavy Rain
5:35 PM 15.0 °C - 15.0 °C 100% 1009.4 hPa 6.4 km West 24.1 km/h / 6.7 m/s 40.7 km/h / 11.3 m/s 3.6 mm Rain Heavy Rain
5:55 PM 13.0 °C - 13.0 °C 100% 1010.0 hPa 8.0 km WSW 20.4 km/h / 5.7 m/s 40.7 km/h / 11.3 m/s 4.8 mm Rain Light Rain
6:15 PM 13.0 °C - 13.0 °C 100% 1010.4 hPa 8.0 km WSW 20.4 km/h / 5.7 m/s 37.0 km/h / 10.3 m/s 1.3 mm Rain Heavy Rain
6:35 PM 12.0 °C - 11.0 °C 94% 1011.1 hPa 8.0 km SW 27.8 km/h / 7.7 m/s 40.7 km/h / 11.3 m/s 2.3 mm Rain Light Rain
6:55 PM 11.0 °C - 11.0 °C 100% 1011.4 hPa 16.1 km WSW 16.7 km/h / 4.6 m/s 29.6 km/h / 8.2 m/s 2.5 mm   Clear
7:15 PM 11.0 °C - 10.0 °C 94% 1011.7 hPa 16.1 km WSW 14.8 km/h / 4.1 m/s - N/A   Clear
7:35 PM 11.0 °C - 10.0 °C 94% 1012.4 hPa 16.1 km WSW 16.7 km/h / 4.6 m/s 31.5 km/h / 8.7 m/s N/A   Clear
7:55 PM 10.0 °C - 10.0 °C 100% 1012.8 hPa 16.1 km WSW 13.0 km/h / 3.6 m/s - N/A   Clear
8:15 PM 10.0 °C - 8.0 °C 87% 1013.1 hPa 16.1 km WSW 18.5 km/h / 5.1 m/s 31.5 km/h / 8.7 m/s N/A   Clear
8:35 PM 10.0 °C - 8.0 °C 87% 1013.8 hPa 16.1 km West 18.5 km/h / 5.1 m/s 33.3 km/h / 9.3 m/s N/A   Clear
9:15 PM 10.0 °C - 7.0 °C 82% 1014.8 hPa 16.1 km WSW 18.5 km/h / 5.1 m/s 33.3 km/h / 9.3 m/s N/A   Clear
9:35 PM 10.0 °C - 7.0 °C 82% 1015.1 hPa 16.1 km West 18.5 km/h / 5.1 m/s 25.9 km/h / 7.2 m/s N/A   Clear
9:55 PM 10.0 °C - 7.0 °C 82% 1015.8 hPa 16.1 km West 18.5 km/h / 5.1 m/s 27.8 km/h / 7.7 m/s N/A   Clear
10:15 PM 9.0 °C - 6.0 °C 82% 1016.1 hPa 16.1 km West 20.4 km/h / 5.7 m/s 35.2 km/h / 9.8 m/s N/A   Clear
10:35 PM 9.0 °C - 6.0 °C 82% 1016.5 hPa 16.1 km West 22.2 km/h / 6.2 m/s 46.3 km/h / 12.9 m/s N/A   Clear
10:55 PM 9.0 °C - 6.0 °C 82% 1017.2 hPa 16.1 km West 18.5 km/h / 5.1 m/s 33.3 km/h / 9.3 m/s N/A   Clear